User: anonymous   Login
Location: Unspecified
(0.0000°N, 0.0000°E)
Time: 09:34:15
(UTC+00:00)
Language:

RS-15 - Orbit

View from above orbital plane
View from above orbital plane
View from above satellite
View from above satellite

Ground track
Ground track

The orbit data is extracted from the following two-line orbital elements,

1 23439U 94085A   20219.85292709 -.00000042 +00000-0 +78667-5 0  9999
2 23439 064.8157 164.7458 0150628 032.5832 328.4280 11.27568877054709
Epoch (UTC): 06 August 2020 20:28:12
Eccentricity: 0.0150628
inclination: 64.8157°
perigee height: 1896 km
apogee height: 2149 km
right ascension of ascending node: 164.7458°
argument of perigee: 32.5832°
revolutions per day: 11.27568877
mean anomaly at epoch: 328.4280°
orbit number at epoch: 5470

The dashed part of the orbit path shows where the satellite is in the earth's shadow,  

DLR